Weather History for KCSM - January, 2003

Change the Weather History Date:

Wednesday, January 1, 2003

  Actual Average Record
Temperature  
Mean Temperature 38 °F -  
Max Temperature 45 °F 47 °F 72 °F (2006)
Min Temperature 32 °F 28 °F 10 °F (2001)
Degree Days  
Heating Degree Days 26    
Moisture  
Dew Point 27 °F    
Average Humidity 69    
Maximum Humidity 82    
Minimum Humidity 51    
Precipitation  
Precipitation 0.00 in - - ()
Sea Level Pressure  
Sea Level Pressure 29.85 in    
Wind  
Wind Speed 17 mph (North)    
Max Wind Speed 32 mph    
Max Gust Speed 38 mph    
Visibility 9 miles    
Events Snow    
Averages and records for this station are not official NWS values.
T = Trace of Precipitation, MM = Missing Value Source: NWS Daily Summary

Daily Weather History Graph

Daily Weather History Graph

Search for Another Location

Airport or City:

Trip Planner

Search our weather history database for the weather conditions in past years. The results will help you decide how hot, cold, wet, or windy it might be!

Date:

Astronomy

Jan. 01, 2003 Rise Set
Actual Time 7:45 AM CST 5:35 PM CST
Civil Twilight 7:17 AM CST 6:03 PM CST
Nautical Twilight 6:45 AM CST 6:35 PM CST
Astronomical Twilight 6:14 AM CST 7:05 PM CST
Moon 6:42 AM CST (1/1) 4:29 PM CST (1/1)
Length of Visible Light 10h 45m
Length of Day
9h 49m
Waning Crescent, 2% of the Moon is Illuminated
Jan 1
Waning Crescent
Jan 2
New
Jan 10
First Quarter
Jan 18
Full
Jan 25
Last Quarter

Hourly Weather History & Observations

Time (CST) Temp. Windchill Dew Point Humidity Pressure Visibility Wind Dir Wind Speed Gust Speed Precip Events Conditions
12:53 AM 37.9 °F 30.9 °F 25.0 °F 60% 29.79 in 10.0 mi SSE 10.4 mph - N/A   Clear
1:53 AM 37.0 °F 29.8 °F 26.1 °F 65% 29.75 in 10.0 mi SE 10.4 mph - N/A   Clear
2:53 AM 36.0 °F 27.1 °F 26.1 °F 67% 29.73 in 10.0 mi SE 13.8 mph - N/A   Clear
3:53 AM 36.0 °F 26.3 °F 25.0 °F 64% 29.68 in 10.0 mi SSE 16.1 mph - N/A   Clear
4:53 AM 36.0 °F 26.7 °F 25.0 °F 64% 29.67 in 10.0 mi SSE 15.0 mph - N/A   Clear
5:53 AM 34.0 °F 26.6 °F 25.0 °F 70% 29.66 in 10.0 mi SSE 9.2 mph - N/A   Clear
6:53 AM 33.1 °F 24.4 °F 25.0 °F 72% 29.64 in 10.0 mi SSE 11.5 mph - N/A   Clear
7:53 AM 32.0 °F 23.6 °F 25.0 °F 75% 29.63 in 10.0 mi South 10.4 mph - N/A   Clear
8:53 AM 36.0 °F 26.0 °F 24.1 °F 62% 29.63 in 10.0 mi South 17.3 mph - N/A   Clear
9:53 AM 37.9 °F 29.6 °F 27.0 °F 65% 29.62 in 10.0 mi South 13.8 mph - N/A   Clear
10:53 AM 42.1 °F 35.2 °F 30.9 °F 65% 29.63 in 10.0 mi SW 12.7 mph - N/A   Clear
11:53 AM 45.0 °F 38.9 °F 30.0 °F 56% 29.63 in 10.0 mi WNW 12.7 mph - N/A   Clear
12:53 PM 45.0 °F 37.9 °F 30.9 °F 58% 29.65 in 10.0 mi North 16.1 mph - N/A   Clear
1:53 PM 42.1 °F 32.3 °F 28.0 °F 58% 29.71 in 10.0 mi North 24.2 mph 33.4 mph N/A   Overcast
2:53 PM 37.9 °F 26.1 °F 25.0 °F 60% 29.80 in 10.0 mi North 27.6 mph 36.8 mph N/A   Overcast
3:53 PM 39.9 °F 28.0 °F 23.0 °F 51% 29.83 in 10.0 mi North 32.2 mph 38.0 mph N/A   Clear
4:37 PM 33.8 °F 20.8 °F 28.4 °F 81% 29.88 in 10.0 mi North 26.5 mph 32.2 mph N/A   Overcast
4:53 PM 35.1 °F 22.7 °F 27.0 °F 72% 29.92 in 10.0 mi North 25.3 mph 33.4 mph N/A   Overcast
5:53 PM 34.0 °F 20.1 °F 27.0 °F 75% 29.98 in 10.0 mi North 31.1 mph 38.0 mph 0.00 in   Overcast
6:17 PM 33.8 °F 20.5 °F 28.4 °F 81% 29.96 in 4.0 mi North 27.6 mph 35.7 mph 0.00 in Snow Light Snow
6:30 PM 33.8 °F 20.5 °F 28.4 °F 81% 29.97 in 3.0 mi NNW 27.6 mph 35.7 mph 0.00 in Snow Light Snow
6:40 PM 33.8 °F 21.6 °F 28.4 °F 81% 29.99 in 2.5 mi NNW 23.0 mph 34.5 mph 0.00 in Snow Light Snow
6:53 PM 33.1 °F 19.8 °F 28.0 °F 82% 30.03 in 9.0 mi NNW 26.5 mph 31.1 mph 0.00 in   Overcast
7:53 PM 34.0 °F 22.1 °F 27.0 °F 75% 30.07 in 10.0 mi North 21.9 mph 29.9 mph N/A   Overcast
8:26 PM 33.8 °F 21.3 °F 26.6 °F 75% 30.04 in 10.0 mi NNW 24.2 mph - N/A   Overcast
8:35 PM 33.8 °F 21.9 °F 26.6 °F 75% 30.04 in 10.0 mi NNW 21.9 mph - N/A   Overcast
8:46 PM 33.8 °F 22.2 °F 26.6 °F 75% 30.05 in 10.0 mi NNW 20.7 mph - N/A   Overcast
8:53 PM 33.1 °F 20.9 °F 27.0 °F 78% 30.08 in 10.0 mi NNW 21.9 mph 27.6 mph N/A   Overcast
9:53 PM 33.1 °F 20.9 °F 26.1 °F 75% 30.09 in 10.0 mi North 21.9 mph 26.5 mph N/A   Clear
10:53 PM 35.1 °F 23.8 °F 23.0 °F 61% 30.09 in 10.0 mi North 20.7 mph - N/A   Clear
11:53 PM 34.0 °F 22.4 °F 21.9 °F 61% 30.11 in 10.0 mi NNW 20.7 mph 27.6 mph N/A   Clear